TimeCST,TemperatureF,Dew PointF,Humidity,Sea Level PressureIn,VisibilityMPH,Wind Direction,Wind SpeedMPH,Gust SpeedMPH,PrecipitationIn,Events,Conditions,WindDirDegrees,DateUTC
12:15 AM,58.5,55.4,90,30.27,10.0,Calm,Calm,-,N/A,,Overcast,0,2013-11-10 06:15:00
12:35 AM,58.5,55.4,90,30.27,10.0,East,3.5,-,N/A,,Overcast,90,2013-11-10 06:35:00
12:55 AM,58.5,55.2,89,30.27,10.0,ENE,3.5,-,N/A,,Overcast,70,2013-11-10 06:55:00
1:15 AM,58.5,55.0,88,30.27,10.0,Calm,Calm,-,N/A,,Overcast,0,2013-11-10 07:15:00
1:35 AM,58.1,55.0,90,30.27,10.0,East,3.5,-,N/A,,Overcast,80,2013-11-10 07:35:00
1:55 AM,58.1,54.9,89,30.27,10.0,East,3.5,-,N/A,,Overcast,90,2013-11-10 07:55:00
2:15 AM,57.7,54.9,90,30.27,10.0,East,3.5,-,N/A,,Overcast,80,2013-11-10 08:15:00
2:35 AM,57.6,54.7,90,30.27,10.0,Calm,Calm,-,N/A,,Overcast,0,2013-11-10 08:35:00
2:55 AM,57.2,54.7,91,30.27,10.0,Calm,Calm,-,N/A,,Overcast,0,2013-11-10 08:55:00
3:15 AM,57.2,54.5,91,30.27,10.0,Calm,Calm,-,N/A,,Overcast,0,2013-11-10 09:15:00
3:35 AM,56.5,54.1,92,30.27,10.0,ENE,3.5,-,N/A,,Overcast,70,2013-11-10 09:35:00
3:55 AM,55.9,53.6,92,30.27,10.0,ESE,3.5,-,N/A,,Overcast,120,2013-11-10 09:55:00
4:15 AM,55.6,53.6,93,30.27,10.0,ESE,3.5,-,N/A,,Overcast,120,2013-11-10 10:15:00
4:35 AM,55.6,53.6,93,30.28,10.0,Calm,Calm,-,N/A,,Overcast,0,2013-11-10 10:35:00
4:55 AM,55.6,53.8,94,30.28,10.0,Calm,Calm,-,N/A,,Overcast,0,2013-11-10 10:55:00
5:15 AM,55.0,53.2,94,30.29,10.0,Calm,Calm,-,N/A,,Overcast,0,2013-11-10 11:15:00
5:35 AM,54.9,53.4,95,30.30,10.0,Calm,Calm,-,N/A,,Overcast,0,2013-11-10 11:35:00
5:55 AM,55.0,53.6,95,30.31,10.0,Calm,Calm,-,N/A,,Overcast,0,2013-11-10 11:55:00
6:15 AM,54.9,53.6,96,30.31,10.0,Calm,Calm,-,N/A,,Overcast,0,2013-11-10 12:15:00
6:35 AM,54.9,53.6,96,30.32,10.0,Calm,Calm,-,N/A,,Overcast,0,2013-11-10 12:35:00
6:55 AM,55.0,53.6,95,30.32,10.0,Calm,Calm,-,N/A,,Overcast,0,2013-11-10 12:55:00
7:15 AM,55.4,53.6,94,30.33,10.0,Calm,Calm,-,N/A,,Overcast,0,2013-11-10 13:15:00
7:35 AM,55.8,53.6,92,30.34,10.0,Calm,Calm,-,N/A,,Overcast,0,2013-11-10 13:35:00
7:55 AM,56.7,54.1,91,30.34,10.0,Calm,Calm,-,N/A,,Overcast,0,2013-11-10 13:55:00
8:15 AM,57.4,54.9,91,30.34,10.0,Calm,Calm,-,N/A,,Overcast,0,2013-11-10 14:15:00
8:35 AM,58.1,55.0,90,30.35,10.0,Calm,Calm,-,N/A,,Overcast,0,2013-11-10 14:35:00
8:55 AM,59.5,54.3,83,30.35,10.0,Calm,Calm,-,N/A,,Overcast,0,2013-11-10 14:55:00
9:15 AM,60.6,53.1,76,30.36,10.0,Calm,Calm,-,N/A,,Overcast,0,2013-11-10 15:15:00
9:35 AM,61.3,53.2,75,30.36,10.0,Calm,Calm,-,N/A,,Overcast,0,2013-11-10 15:35:00
9:55 AM,62.8,52.3,69,30.36,10.0,SE,3.5,-,N/A,,Overcast,130,2013-11-10 15:55:00
10:15 AM,63.3,51.3,65,30.36,10.0,Calm,Calm,-,N/A,,Overcast,0,2013-11-10 16:15:00
10:35 AM,64.6,50.4,60,30.36,10.0,Calm,Calm,-,N/A,,Overcast,0,2013-11-10 16:35:00
10:55 AM,65.8,51.1,59,30.35,10.0,Calm,Calm,-,N/A,,Mostly Cloudy,0,2013-11-10 16:55:00
11:15 AM,67.3,50.9,56,30.34,10.0,Calm,Calm,-,N/A,,Scattered Clouds,0,2013-11-10 17:15:00
11:35 AM,68.2,48.9,50,30.33,10.0,South,3.5,-,N/A,,Clear,170,2013-11-10 17:35:00
11:55 AM,68.9,49.5,50,30.33,10.0,Calm,Calm,-,N/A,,Clear,0,2013-11-10 17:55:00
12:15 PM,69.3,48.9,48,30.31,10.0,Calm,Calm,-,N/A,,Clear,0,2013-11-10 18:15:00
12:35 PM,70.7,49.3,47,30.31,10.0,Calm,Calm,-,N/A,,Clear,0,2013-11-10 18:35:00
12:55 PM,71.1,46.9,42,30.30,10.0,SSE,5.8,-,N/A,,Clear,150,2013-11-10 18:55:00
1:15 PM,71.6,45.5,39,30.29,10.0,Calm,Calm,-,N/A,,Clear,0,2013-11-10 19:15:00
1:35 PM,72.1,47.1,41,30.28,10.0,SE,5.8,-,N/A,,Clear,140,2013-11-10 19:35:00
1:55 PM,72.5,47.3,41,30.28,10.0,SSE,5.8,-,N/A,,Clear,150,2013-11-10 19:55:00
2:15 PM,72.7,47.5,41,30.27,10.0,SE,4.6,-,N/A,,Clear,140,2013-11-10 20:15:00
2:35 PM,72.9,48.7,42,30.27,10.0,SE,4.6,-,N/A,,Clear,140,2013-11-10 20:35:00
2:55 PM,72.3,48.4,43,30.27,10.0,Calm,Calm,-,N/A,,Clear,0,2013-11-10 20:55:00
3:15 PM,72.5,49.1,44,30.27,10.0,Calm,Calm,-,N/A,,Clear,0,2013-11-10 21:15:00
3:35 PM,72.7,49.5,44,30.27,10.0,Calm,Calm,-,N/A,,Clear,0,2013-11-10 21:35:00
3:55 PM,72.5,50.0,45,30.26,10.0,Calm,Calm,-,N/A,,Clear,0,2013-11-10 21:55:00
4:15 PM,71.6,49.3,45,30.26,10.0,South,3.5,-,N/A,,Clear,170,2013-11-10 22:15:00
4:35 PM,71.1,50.0,47,30.26,10.0,Calm,Calm,-,N/A,,Clear,0,2013-11-10 22:35:00
4:55 PM,70.9,50.4,48,30.27,10.0,Calm,Calm,-,N/A,,Clear,0,2013-11-10 22:55:00
5:15 PM,68.2,51.4,55,30.26,10.0,ESE,3.5,-,N/A,,Clear,110,2013-11-10 23:15:00
5:35 PM,65.7,50.9,59,30.27,10.0,ESE,3.5,-,N/A,,Clear,120,2013-11-10 23:35:00
5:55 PM,65.3,50.4,58,30.26,10.0,ESE,3.5,-,N/A,,Clear,120,2013-11-10 23:55:00
6:15 PM,65.1,50.2,58,30.27,10.0,Calm,Calm,-,N/A,,Clear,0,2013-11-11 00:15:00
6:35 PM,65.1,50.0,58,30.27,10.0,Calm,Calm,-,N/A,,Clear,0,2013-11-11 00:35:00
6:55 PM,63.9,50.4,61,30.28,10.0,Calm,Calm,-,N/A,,Clear,0,2013-11-11 00:55:00
7:15 PM,63.3,50.9,64,30.28,10.0,SSE,3.5,-,N/A,,Clear,150,2013-11-11 01:15:00
7:35 PM,62.6,51.3,66,30.28,10.0,SSE,3.5,-,N/A,,Clear,160,2013-11-11 01:35:00
7:55 PM,61.5,51.4,69,30.28,10.0,SSE,3.5,-,N/A,,Clear,160,2013-11-11 01:55:00
8:15 PM,61.5,51.3,69,30.28,10.0,SSE,3.5,-,N/A,,Clear,160,2013-11-11 02:15:00
8:35 PM,61.3,51.1,69,30.28,10.0,SSE,3.5,-,N/A,,Clear,160,2013-11-11 02:35:00
8:55 PM,60.4,51.1,71,30.28,10.0,SSE,3.5,-,N/A,,Clear,160,2013-11-11 02:55:00
9:15 PM,60.4,51.1,71,30.28,10.0,SSE,3.5,-,N/A,,Clear,160,2013-11-11 03:15:00
9:35 PM,60.8,51.1,70,30.28,10.0,Calm,Calm,-,N/A,,Clear,0,2013-11-11 03:35:00
9:55 PM,59.5,51.1,74,30.28,10.0,Calm,Calm,-,N/A,,Clear,0,2013-11-11 03:55:00
10:15 PM,58.5,51.1,76,30.28,10.0,Calm,Calm,-,N/A,,Clear,0,2013-11-11 04:15:00
10:35 PM,56.5,51.4,83,30.28,10.0,Calm,Calm,-,N/A,,Clear,0,2013-11-11 04:35:00
10:55 PM,56.7,51.1,82,30.28,10.0,Calm,Calm,-,N/A,,Clear,0,2013-11-11 04:55:00
11:15 PM,55.6,51.1,85,30.28,10.0,Calm,Calm,-,N/A,,Clear,0,2013-11-11 05:15:00
11:35 PM,55.6,52.0,88,30.28,10.0,Calm,Calm,-,N/A,,Clear,0,2013-11-11 05:35:00
11:55 PM,55.4,53.2,92,30.27,10.0,Calm,Calm,-,N/A,,Clear,0,2013-11-11 05:55:00